Year,Month,Day,Hour,Minute,Value (Times are PST for temperature in C)
2012,10,02,00,00,14.30
2012,10,02,00,01,14.30
2012,10,02,00,02,14.30
2012,10,02,00,03,14.30
2012,10,02,00,04,14.30
2012,10,02,00,05,14.30
2012,10,02,00,06,14.30
2012,10,02,00,07,14.20
2012,10,02,00,08,14.20
2012,10,02,00,09,14.20
2012,10,02,00,10,14.20
2012,10,02,00,11,14.20
2012,10,02,00,12,14.10
2012,10,02,00,13,14.10
2012,10,02,00,14,14.10
2012,10,02,00,15,14.10
2012,10,02,00,16,14.10
2012,10,02,00,17,14.10
2012,10,02,00,18,14.00
2012,10,02,00,19,14.00
2012,10,02,00,20,14.00
2012,10,02,00,21,14.00
2012,10,02,00,22,13.90
2012,10,02,00,23,13.90
2012,10,02,00,24,13.90
2012,10,02,00,25,13.90
2012,10,02,00,26,13.90
2012,10,02,00,27,13.90
2012,10,02,00,28,13.90
2012,10,02,00,29,13.90
2012,10,02,00,30,13.90
2012,10,02,00,31,13.80
2012,10,02,00,32,13.80
2012,10,02,00,33,13.80
2012,10,02,00,34,13.80
2012,10,02,00,35,13.80
2012,10,02,00,36,13.80
2012,10,02,00,37,13.80
2012,10,02,00,38,13.80
2012,10,02,00,39,13.70
2012,10,02,00,40,13.70
2012,10,02,00,41,13.70
2012,10,02,00,42,13.70
2012,10,02,00,43,13.70
2012,10,02,00,44,13.70
2012,10,02,00,45,13.70
2012,10,02,00,46,13.70
2012,10,02,00,47,13.70
2012,10,02,00,48,13.70
2012,10,02,00,49,13.70
2012,10,02,00,50,13.60
2012,10,02,00,51,13.60
2012,10,02,00,52,13.60
2012,10,02,00,53,13.60
2012,10,02,00,54,13.50
2012,10,02,00,55,13.50
2012,10,02,00,56,13.50
2012,10,02,00,57,13.40
2012,10,02,00,58,13.40
2012,10,02,00,59,13.40
2012,10,02,01,00,13.40
2012,10,02,01,01,13.40
2012,10,02,01,02,13.40
2012,10,02,01,03,13.40
2012,10,02,01,04,13.40
2012,10,02,01,05,13.40
2012,10,02,01,06,13.30
2012,10,02,01,07,13.30
2012,10,02,01,08,13.30
2012,10,02,01,09,13.30
2012,10,02,01,10,13.30
2012,10,02,01,11,13.30
2012,10,02,01,12,13.30
2012,10,02,01,13,13.30
2012,10,02,01,14,13.30
2012,10,02,01,15,13.30
2012,10,02,01,16,13.30
2012,10,02,01,17,13.30
2012,10,02,01,18,13.30
2012,10,02,01,19,13.30
2012,10,02,01,20,13.30
2012,10,02,01,21,13.30
2012,10,02,01,22,13.30
2012,10,02,01,23,13.30
2012,10,02,01,24,13.30
2012,10,02,01,25,13.30
2012,10,02,01,26,13.30
2012,10,02,01,27,13.30
2012,10,02,01,28,13.30
2012,10,02,01,29,13.30
2012,10,02,01,30,13.20
2012,10,02,01,31,13.20
2012,10,02,01,32,13.20
2012,10,02,01,33,13.20
2012,10,02,01,34,13.20
2012,10,02,01,35,13.20
2012,10,02,01,36,13.10
2012,10,02,01,37,13.10
2012,10,02,01,38,13.10
2012,10,02,01,39,13.10
2012,10,02,01,40,13.10
2012,10,02,01,41,13.00
2012,10,02,01,42,13.00
2012,10,02,01,43,13.00
2012,10,02,01,44,12.90
2012,10,02,01,45,12.90
2012,10,02,01,46,12.90
2012,10,02,01,47,12.90
2012,10,02,01,48,12.90
2012,10,02,01,49,13.00
2012,10,02,01,50,13.00
2012,10,02,01,51,13.00
2012,10,02,01,52,13.00
2012,10,02,01,53,13.00
2012,10,02,01,54,13.00
2012,10,02,01,55,13.00
2012,10,02,01,56,13.10
2012,10,02,01,57,13.10
2012,10,02,01,58,13.20
2012,10,02,01,59,13.20
2012,10,02,02,00,13.30
2012,10,02,02,01,13.30
2012,10,02,02,02,13.30
2012,10,02,02,03,13.30
2012,10,02,02,04,13.30
2012,10,02,02,05,13.30
2012,10,02,02,06,13.30
2012,10,02,02,07,13.30
2012,10,02,02,08,13.30
2012,10,02,02,09,13.30
2012,10,02,02,10,13.30
2012,10,02,02,11,13.30
2012,10,02,02,12,13.30
2012,10,02,02,13,13.30
2012,10,02,02,14,13.30
2012,10,02,02,15,13.30
2012,10,02,02,16,13.20
2012,10,02,02,17,13.20
2012,10,02,02,18,13.20
2012,10,02,02,19,13.20
2012,10,02,02,20,13.10
2012,10,02,02,21,13.10
2012,10,02,02,22,13.10
2012,10,02,02,23,13.10
2012,10,02,02,24,13.10
2012,10,02,02,25,13.00
2012,10,02,02,26,13.00
2012,10,02,02,27,12.90
2012,10,02,02,28,12.90
2012,10,02,02,29,12.90
2012,10,02,02,30,12.90
2012,10,02,02,31,12.80
2012,10,02,02,32,12.80
2012,10,02,02,33,12.80
2012,10,02,02,34,12.80
2012,10,02,02,35,12.70
2012,10,02,02,36,12.70
2012,10,02,02,37,12.70
2012,10,02,02,38,12.60
2012,10,02,02,39,12.60
2012,10,02,02,40,12.60
2012,10,02,02,41,12.50
2012,10,02,02,42,12.50
2012,10,02,02,43,12.40
2012,10,02,02,44,12.40
2012,10,02,02,45,12.40
2012,10,02,02,46,12.40
2012,10,02,02,47,12.30
2012,10,02,02,48,12.30
2012,10,02,02,49,12.30
2012,10,02,02,50,12.30
2012,10,02,02,51,12.20
2012,10,02,02,52,12.20
2012,10,02,02,53,12.20
2012,10,02,02,54,12.20
2012,10,02,02,55,12.20
2012,10,02,02,56,12.10
2012,10,02,02,57,12.10
2012,10,02,02,58,12.00
2012,10,02,02,59,12.00
2012,10,02,03,00,11.90
2012,10,02,03,01,11.90
2012,10,02,03,02,11.80
2012,10,02,03,03,11.80
2012,10,02,03,04,11.70
2012,10,02,03,05,11.70
2012,10,02,03,06,11.60
2012,10,02,03,07,11.50
2012,10,02,03,08,11.50
2012,10,02,03,09,11.40
2012,10,02,03,10,11.30
2012,10,02,03,11,11.30
2012,10,02,03,12,11.20
2012,10,02,03,13,11.20
2012,10,02,03,14,11.20
2012,10,02,03,15,11.20
2012,10,02,03,16,11.20
2012,10,02,03,17,11.20
2012,10,02,03,18,11.20
2012,10,02,03,19,11.10
2012,10,02,03,20,11.10
2012,10,02,03,21,11.10
2012,10,02,03,22,11.10
2012,10,02,03,23,11.10
2012,10,02,03,24,11.10
2012,10,02,03,25,11.00
2012,10,02,03,26,11.00
2012,10,02,03,27,11.00
2012,10,02,03,28,11.00
2012,10,02,03,29,10.90
2012,10,02,03,30,10.90
2012,10,02,03,31,10.90
2012,10,02,03,32,10.90
2012,10,02,03,33,10.90
2012,10,02,03,34,10.90
2012,10,02,03,35,10.90
2012,10,02,03,36,10.90
2012,10,02,03,37,11.00
2012,10,02,03,38,11.00
2012,10,02,03,39,11.10
2012,10,02,03,40,11.20
2012,10,02,03,41,11.20
2012,10,02,03,42,11.30
2012,10,02,03,43,11.30
2012,10,02,03,44,11.30
2012,10,02,03,45,11.40
2012,10,02,03,46,11.40
2012,10,02,03,47,11.50
2012,10,02,03,48,11.50
2012,10,02,03,49,11.60
2012,10,02,03,50,11.60
2012,10,02,03,51,11.60
2012,10,02,03,52,11.60
2012,10,02,03,53,11.70
2012,10,02,03,54,11.70
2012,10,02,03,55,11.70
2012,10,02,03,56,11.70
2012,10,02,03,57,11.70
2012,10,02,03,58,11.70
2012,10,02,03,59,11.70
2012,10,02,04,00,11.70
2012,10,02,04,01,11.70
2012,10,02,04,02,11.70
2012,10,02,04,03,11.70
2012,10,02,04,04,11.70
2012,10,02,04,05,11.70
2012,10,02,04,06,11.70
2012,10,02,04,07,11.70
2012,10,02,04,08,11.70
2012,10,02,04,09,11.70
2012,10,02,04,10,11.70
2012,10,02,04,11,11.70
2012,10,02,04,12,11.70
2012,10,02,04,13,11.70
2012,10,02,04,14,11.70
2012,10,02,04,15,11.60
2012,10,02,04,16,11.60
2012,10,02,04,17,11.60
2012,10,02,04,18,11.60
2012,10,02,04,19,11.60
2012,10,02,04,20,11.60
2012,10,02,04,21,11.50
2012,10,02,04,22,11.50
2012,10,02,04,23,11.40
2012,10,02,04,24,11.40
2012,10,02,04,25,11.40
2012,10,02,04,26,11.50
2012,10,02,04,27,11.50
2012,10,02,04,28,11.50
2012,10,02,04,29,11.60
2012,10,02,04,30,11.60
2012,10,02,04,31,11.60
2012,10,02,04,32,11.60
2012,10,02,04,33,11.60
2012,10,02,04,34,11.60
2012,10,02,04,35,11.60
2012,10,02,04,36,11.70
2012,10,02,04,37,11.70
2012,10,02,04,38,11.70
2012,10,02,04,39,11.70
2012,10,02,04,40,11.70
2012,10,02,04,41,11.70
2012,10,02,04,42,11.70
2012,10,02,04,43,11.70
2012,10,02,04,44,11.70
2012,10,02,04,45,11.60
2012,10,02,04,46,11.60
2012,10,02,04,47,11.60
2012,10,02,04,48,11.60
2012,10,02,04,49,11.60
2012,10,02,04,50,11.60
2012,10,02,04,51,11.60
2012,10,02,04,52,11.60
2012,10,02,04,53,11.60
2012,10,02,04,54,11.60
2012,10,02,04,55,11.60
2012,10,02,04,56,11.60
2012,10,02,04,57,11.60
2012,10,02,04,58,11.60
2012,10,02,04,59,11.60
2012,10,02,05,00,11.50
2012,10,02,05,01,11.50
2012,10,02,05,02,11.40
2012,10,02,05,03,11.40
2012,10,02,05,04,11.30
2012,10,02,05,05,11.20
2012,10,02,05,06,11.10
2012,10,02,05,07,11.10
2012,10,02,05,08,11.10
2012,10,02,05,09,11.10
2012,10,02,05,10,11.10
2012,10,02,05,11,11.10
2012,10,02,05,12,11.10
2012,10,02,05,13,11.10
2012,10,02,05,14,11.10
2012,10,02,05,15,11.10
2012,10,02,05,16,11.10
2012,10,02,05,17,11.10
2012,10,02,05,18,11.10
2012,10,02,05,19,11.10
2012,10,02,05,20,11.10
2012,10,02,05,21,11.10
2012,10,02,05,22,11.10
2012,10,02,05,23,11.10
2012,10,02,05,24,11.10
2012,10,02,05,25,11.10
2012,10,02,05,26,11.00
2012,10,02,05,27,11.10
2012,10,02,05,28,11.00
2012,10,02,05,29,11.00
2012,10,02,05,30,11.00
2012,10,02,05,31,11.00
2012,10,02,05,32,11.00
2012,10,02,05,33,11.00
2012,10,02,05,34,11.00
2012,10,02,05,35,11.00
2012,10,02,05,36,11.00
2012,10,02,05,37,10.90
2012,10,02,05,38,10.90
2012,10,02,05,39,10.90
2012,10,02,05,40,10.90
2012,10,02,05,41,10.90
2012,10,02,05,42,10.90
2012,10,02,05,43,10.90
2012,10,02,05,44,10.90
2012,10,02,05,45,10.80
2012,10,02,05,46,10.80
2012,10,02,05,47,10.80
2012,10,02,05,48,10.80
2012,10,02,05,49,10.80
2012,10,02,05,50,10.80
2012,10,02,05,51,10.80
2012,10,02,05,52,10.70
2012,10,02,05,53,10.70
2012,10,02,05,54,10.70
2012,10,02,05,55,10.70
2012,10,02,05,56,10.70
2012,10,02,05,57,10.70
2012,10,02,05,58,10.70
2012,10,02,05,59,10.70
2012,10,02,06,00,10.70
2012,10,02,06,01,10.70
2012,10,02,06,02,10.70
2012,10,02,06,03,10.70
2012,10,02,06,04,10.60
2012,10,02,06,05,10.60
2012,10,02,06,06,10.60
2012,10,02,06,07,10.60
2012,10,02,06,08,10.60
2012,10,02,06,09,10.60
2012,10,02,06,10,10.60
2012,10,02,06,11,10.60
2012,10,02,06,12,10.60
2012,10,02,06,13,10.60
2012,10,02,06,14,10.60
2012,10,02,06,15,10.60
2012,10,02,06,16,10.70
2012,10,02,06,17,10.70
2012,10,02,06,18,10.70
2012,10,02,06,19,10.70
2012,10,02,06,20,10.70
2012,10,02,06,21,10.70
2012,10,02,06,22,10.70
2012,10,02,06,23,10.70
2012,10,02,06,24,10.70
2012,10,02,06,25,10.80
2012,10,02,06,26,10.80
2012,10,02,06,27,10.80
2012,10,02,06,28,10.80
2012,10,02,06,29,10.80
2012,10,02,06,30,10.80
2012,10,02,06,31,10.80
2012,10,02,06,32,10.80
2012,10,02,06,33,10.90
2012,10,02,06,34,10.80
2012,10,02,06,35,10.80
2012,10,02,06,36,10.80
2012,10,02,06,37,10.80
2012,10,02,06,38,10.80
2012,10,02,06,39,10.80
2012,10,02,06,40,10.80
2012,10,02,06,41,10.80
2012,10,02,06,42,10.80
2012,10,02,06,43,10.70
2012,10,02,06,44,10.70
2012,10,02,06,45,10.70
2012,10,02,06,46,10.70
2012,10,02,06,47,10.70
2012,10,02,06,48,10.70
2012,10,02,06,49,10.60
2012,10,02,06,50,10.60
2012,10,02,06,51,10.60
2012,10,02,06,52,10.60
2012,10,02,06,53,10.50
2012,10,02,06,54,10.50
2012,10,02,06,55,10.40
2012,10,02,06,56,10.40
2012,10,02,06,57,10.40
2012,10,02,06,58,10.40
2012,10,02,06,59,10.30
2012,10,02,07,00,10.30
2012,10,02,07,01,10.20
2012,10,02,07,02,10.10
2012,10,02,07,03,10.10
2012,10,02,07,04,10.00
2012,10,02,07,05,9.90
2012,10,02,07,06,9.90
2012,10,02,07,07,9.80
2012,10,02,07,08,9.70
2012,10,02,07,09,9.60
2012,10,02,07,10,9.50
2012,10,02,07,11,9.40
2012,10,02,07,12,9.40
2012,10,02,07,13,9.30
2012,10,02,07,14,9.30
2012,10,02,07,15,9.20
2012,10,02,07,16,9.10
2012,10,02,07,17,9.00
2012,10,02,07,18,9.00
2012,10,02,07,19,8.90
2012,10,02,07,20,8.80
2012,10,02,07,21,8.80
2012,10,02,07,22,8.80
2012,10,02,07,23,8.70
2012,10,02,07,24,8.70
2012,10,02,07,25,8.70
2012,10,02,07,26,8.70
2012,10,02,07,27,8.60
2012,10,02,07,28,8.50
2012,10,02,07,29,8.40
2012,10,02,07,30,8.40
2012,10,02,07,31,8.30
2012,10,02,07,32,8.30
2012,10,02,07,33,8.30
2012,10,02,07,34,8.30
2012,10,02,07,35,8.30
2012,10,02,07,36,8.30
2012,10,02,07,37,8.40
2012,10,02,07,38,8.40
2012,10,02,07,39,8.40
2012,10,02,07,40,8.50
2012,10,02,07,41,8.50
2012,10,02,07,42,8.50
2012,10,02,07,43,8.40
2012,10,02,07,44,8.40
2012,10,02,07,45,8.40
2012,10,02,07,46,8.20
2012,10,02,07,47,8.10
2012,10,02,07,48,8.00
2012,10,02,07,49,7.90
2012,10,02,07,50,7.80
2012,10,02,07,51,7.70
2012,10,02,07,52,7.60
2012,10,02,07,53,7.50
2012,10,02,07,54,7.50
2012,10,02,07,55,7.40
2012,10,02,07,56,7.40
2012,10,02,07,57,7.40
2012,10,02,07,58,7.30
2012,10,02,07,59,7.30
2012,10,02,08,00,7.30
2012,10,02,08,01,7.20
2012,10,02,08,02,7.20
2012,10,02,08,03,7.20
2012,10,02,08,04,7.30
2012,10,02,08,05,7.30
2012,10,02,08,06,7.30
2012,10,02,08,07,7.40
2012,10,02,08,08,7.50
2012,10,02,08,09,7.50
2012,10,02,08,10,7.60
2012,10,02,08,11,7.70
2012,10,02,08,12,7.80
2012,10,02,08,13,7.80
2012,10,02,08,14,7.80
2012,10,02,08,15,7.80
2012,10,02,08,16,7.80
2012,10,02,08,17,7.80
2012,10,02,08,18,7.80
2012,10,02,08,19,7.90
2012,10,02,08,20,7.90
2012,10,02,08,21,7.90
2012,10,02,08,22,8.00
2012,10,02,08,23,8.10
2012,10,02,08,24,8.20
2012,10,02,08,25,8.30
2012,10,02,08,26,8.40
2012,10,02,08,27,8.50
2012,10,02,08,28,8.60
2012,10,02,08,29,8.80
2012,10,02,08,30,9.00
2012,10,02,08,31,9.10
2012,10,02,08,32,9.30
2012,10,02,08,33,9.50
2012,10,02,08,34,9.70
2012,10,02,08,35,9.80
2012,10,02,08,36,9.90
2012,10,02,08,37,10.00
2012,10,02,08,38,10.10
2012,10,02,08,39,10.20
2012,10,02,08,40,10.30
2012,10,02,08,41,10.30
2012,10,02,08,42,10.40
2012,10,02,08,43,10.40
2012,10,02,08,44,10.40
2012,10,02,08,45,10.50
2012,10,02,08,46,10.50
2012,10,02,08,47,10.60
2012,10,02,08,48,10.60
2012,10,02,08,49,10.60
2012,10,02,08,50,10.70
2012,10,02,08,51,10.70
2012,10,02,08,52,10.70
2012,10,02,08,53,10.70
2012,10,02,08,54,10.80
2012,10,02,08,55,10.80
2012,10,02,08,56,10.80
2012,10,02,08,57,10.80
2012,10,02,08,58,10.90
2012,10,02,08,59,10.90
2012,10,02,09,00,10.90
2012,10,02,09,01,10.90
2012,10,02,09,02,11.00
2012,10,02,09,03,11.00
2012,10,02,09,04,11.10
2012,10,02,09,05,11.10
2012,10,02,09,06,11.10
2012,10,02,09,07,11.20
2012,10,02,09,08,11.20
2012,10,02,09,09,11.20
2012,10,02,09,10,11.30
2012,10,02,09,11,11.30
2012,10,02,09,12,11.30
2012,10,02,09,13,11.30
2012,10,02,09,14,11.40
2012,10,02,09,15,11.40
2012,10,02,09,16,11.40
2012,10,02,09,17,11.40
2012,10,02,09,18,11.50
2012,10,02,09,19,11.50
2012,10,02,09,20,11.60
2012,10,02,09,21,11.60
2012,10,02,09,22,11.60
2012,10,02,09,23,11.70
2012,10,02,09,24,11.70
2012,10,02,09,25,11.70
2012,10,02,09,26,11.80
2012,10,02,09,27,11.80
2012,10,02,09,28,11.80
2012,10,02,09,29,11.80
2012,10,02,09,30,11.80
2012,10,02,09,31,11.80
2012,10,02,09,32,11.90
2012,10,02,09,33,11.90
2012,10,02,09,34,11.90
2012,10,02,09,35,11.90
2012,10,02,09,36,11.90
2012,10,02,09,37,11.90
2012,10,02,09,38,12.00
2012,10,02,09,39,12.00
2012,10,02,09,40,12.00
2012,10,02,09,41,12.00
2012,10,02,09,42,12.00
2012,10,02,09,43,12.10
2012,10,02,09,44,12.10
2012,10,02,09,45,12.20
2012,10,02,09,46,12.20
2012,10,02,09,47,12.30
2012,10,02,09,48,12.30
2012,10,02,09,49,12.30
2012,10,02,09,50,12.30
2012,10,02,09,51,12.30
2012,10,02,09,52,12.30
2012,10,02,09,53,12.30
2012,10,02,09,54,12.30
2012,10,02,09,55,12.30
2012,10,02,09,56,12.30
2012,10,02,09,57,12.30
2012,10,02,09,58,12.30
2012,10,02,09,59,12.40
2012,10,02,10,00,12.40
2012,10,02,10,01,12.40
2012,10,02,10,02,12.50
2012,10,02,10,03,12.50
2012,10,02,10,04,12.50
2012,10,02,10,05,12.50
2012,10,02,10,06,12.50
2012,10,02,10,07,12.50
2012,10,02,10,08,12.60
2012,10,02,10,09,12.60
2012,10,02,10,10,12.60
2012,10,02,10,11,12.60
2012,10,02,10,12,12.70
2012,10,02,10,13,12.70
2012,10,02,10,14,12.70
2012,10,02,10,15,12.80
2012,10,02,10,16,12.80
2012,10,02,10,17,12.90
2012,10,02,10,18,12.90
2012,10,02,10,19,12.90
2012,10,02,10,20,13.00
2012,10,02,10,21,13.10
2012,10,02,10,22,13.10
2012,10,02,10,23,13.00
2012,10,02,10,24,13.00
2012,10,02,10,25,13.00
2012,10,02,10,26,12.90
2012,10,02,10,27,12.90
2012,10,02,10,28,12.90
2012,10,02,10,29,12.90
2012,10,02,10,30,12.90
2012,10,02,10,31,12.90
2012,10,02,10,32,12.90
2012,10,02,10,33,12.90
2012,10,02,10,34,12.90
2012,10,02,10,35,13.00
2012,10,02,10,36,13.10
2012,10,02,10,37,13.10
2012,10,02,10,38,13.20
2012,10,02,10,39,13.20
2012,10,02,10,40,13.20
2012,10,02,10,41,13.20
2012,10,02,10,42,13.20
2012,10,02,10,43,13.20
2012,10,02,10,44,13.20
2012,10,02,10,45,13.20
2012,10,02,10,46,13.20
2012,10,02,10,47,13.30
2012,10,02,10,48,13.30
2012,10,02,10,49,13.40
2012,10,02,10,50,13.40
2012,10,02,10,51,13.40
2012,10,02,10,52,13.50
2012,10,02,10,53,13.60
2012,10,02,10,54,13.60
2012,10,02,10,55,13.70
2012,10,02,10,56,13.70
2012,10,02,10,57,13.80
2012,10,02,10,58,13.80
2012,10,02,10,59,13.80
2012,10,02,11,00,13.80
2012,10,02,11,01,13.90
2012,10,02,11,02,13.90
2012,10,02,11,03,13.90
2012,10,02,11,04,13.90
2012,10,02,11,05,13.90
2012,10,02,11,06,13.90
2012,10,02,11,07,13.90
2012,10,02,11,08,14.00
2012,10,02,11,09,13.90
2012,10,02,11,10,14.00
2012,10,02,11,11,14.00
2012,10,02,11,12,14.10
2012,10,02,11,13,14.20
2012,10,02,11,14,14.20
2012,10,02,11,15,14.30
2012,10,02,11,16,14.30
2012,10,02,11,17,14.30
2012,10,02,11,18,14.30
2012,10,02,11,19,14.30
2012,10,02,11,20,14.40
2012,10,02,11,21,14.40
2012,10,02,11,22,14.40
2012,10,02,11,23,14.50
2012,10,02,11,24,14.50
2012,10,02,11,25,14.60
2012,10,02,11,26,14.60
2012,10,02,11,27,14.60
2012,10,02,11,28,14.60
2012,10,02,11,29,14.60
2012,10,02,11,30,14.60
2012,10,02,11,31,14.70
2012,10,02,11,32,14.70
2012,10,02,11,33,14.60
2012,10,02,11,34,14.60
2012,10,02,11,35,14.70
2012,10,02,11,36,14.70
2012,10,02,11,37,14.60
2012,10,02,11,38,14.60
2012,10,02,11,39,14.60
2012,10,02,11,40,14.60
2012,10,02,11,41,14.70
2012,10,02,11,42,14.70
2012,10,02,11,43,14.70
2012,10,02,11,44,14.80
2012,10,02,11,45,14.80
2012,10,02,11,46,14.80
2012,10,02,11,47,15.00
2012,10,02,11,48,15.00
2012,10,02,11,49,15.00
2012,10,02,11,50,15.00
2012,10,02,11,51,15.00
2012,10,02,11,52,15.00
2012,10,02,11,53,15.00
2012,10,02,11,54,15.10
2012,10,02,11,55,15.10
2012,10,02,11,56,15.20
2012,10,02,11,57,15.20
2012,10,02,11,58,15.20
2012,10,02,11,59,15.20
2012,10,02,12,00,15.20
2012,10,02,12,01,15.20
2012,10,02,12,02,15.20
2012,10,02,12,03,15.20
2012,10,02,12,04,15.20
2012,10,02,12,05,15.30
2012,10,02,12,06,15.40
2012,10,02,12,07,15.40
2012,10,02,12,08,15.40
2012,10,02,12,09,15.40
2012,10,02,12,10,15.40
2012,10,02,12,11,15.50
2012,10,02,12,12,15.60
2012,10,02,12,13,15.60
2012,10,02,12,14,15.60
2012,10,02,12,15,15.50
2012,10,02,12,16,15.60
2012,10,02,12,17,15.60
2012,10,02,12,18,15.60
2012,10,02,12,19,15.60
2012,10,02,12,20,15.60
2012,10,02,12,21,15.50
2012,10,02,12,22,15.40
2012,10,02,12,23,15.40
2012,10,02,12,24,15.40
2012,10,02,12,25,15.40
2012,10,02,12,26,15.50
2012,10,02,12,27,15.50
2012,10,02,12,28,15.50
2012,10,02,12,29,15.60
2012,10,02,12,30,15.60
2012,10,02,12,31,15.50
2012,10,02,12,32,15.60
2012,10,02,12,33,15.60
2012,10,02,12,34,15.60
2012,10,02,12,35,15.70
2012,10,02,12,36,15.70
2012,10,02,12,37,15.80
2012,10,02,12,38,15.90
2012,10,02,12,39,15.90
2012,10,02,12,40,16.00
2012,10,02,12,41,16.00
2012,10,02,12,42,16.10
2012,10,02,12,43,16.10
2012,10,02,12,44,16.00
2012,10,02,12,45,15.90
2012,10,02,12,46,15.80
2012,10,02,12,47,15.70
2012,10,02,12,48,15.60
2012,10,02,12,49,15.60
2012,10,02,12,50,15.50
2012,10,02,12,51,15.50
2012,10,02,12,52,15.50
2012,10,02,12,53,15.50
2012,10,02,12,54,15.50
2012,10,02,12,55,15.50
2012,10,02,12,56,15.60
2012,10,02,12,57,15.60
2012,10,02,12,58,15.70
2012,10,02,12,59,15.70
2012,10,02,13,00,15.70
2012,10,02,13,01,15.70
2012,10,02,13,02,15.80
2012,10,02,13,03,15.90
2012,10,02,13,04,16.00
2012,10,02,13,05,16.10
2012,10,02,13,06,16.10
2012,10,02,13,07,16.20
2012,10,02,13,08,16.10
2012,10,02,13,09,16.00
2012,10,02,13,10,16.00
2012,10,02,13,11,15.90
2012,10,02,13,12,15.90
2012,10,02,13,13,15.90
2012,10,02,13,14,16.00
2012,10,02,13,15,16.10
2012,10,02,13,16,16.20
2012,10,02,13,17,16.40
2012,10,02,13,18,16.50
2012,10,02,13,19,16.50
2012,10,02,13,20,16.60
2012,10,02,13,21,16.70
2012,10,02,13,22,16.80
2012,10,02,13,23,16.80
2012,10,02,13,24,16.80
2012,10,02,13,25,16.80
2012,10,02,13,26,16.80
2012,10,02,13,27,16.80
2012,10,02,13,28,16.80
2012,10,02,13,29,16.90
2012,10,02,13,30,16.90
2012,10,02,13,31,16.90
2012,10,02,13,32,16.90
2012,10,02,13,33,16.90
2012,10,02,13,34,16.80
2012,10,02,13,35,16.80
2012,10,02,13,36,16.70
2012,10,02,13,37,16.60
2012,10,02,13,38,16.50
2012,10,02,13,39,16.50
2012,10,02,13,40,16.50
2012,10,02,13,41,16.50
2012,10,02,13,42,16.50
2012,10,02,13,43,16.30
2012,10,02,13,44,16.10
2012,10,02,13,45,15.90
2012,10,02,13,46,15.90
2012,10,02,13,47,15.90
2012,10,02,13,48,15.90
2012,10,02,13,49,16.00
2012,10,02,13,50,16.10
2012,10,02,13,51,16.10
2012,10,02,13,52,16.20
2012,10,02,13,53,16.20
2012,10,02,13,54,16.30
2012,10,02,13,55,16.30
2012,10,02,13,56,16.30
2012,10,02,13,57,16.30
2012,10,02,13,58,16.30
2012,10,02,13,59,16.30
2012,10,02,14,00,16.30
2012,10,02,14,01,16.20
2012,10,02,14,02,16.10
2012,10,02,14,03,16.10
2012,10,02,14,04,16.10
2012,10,02,14,05,16.10
2012,10,02,14,06,16.10
2012,10,02,14,07,16.10
2012,10,02,14,08,16.20
2012,10,02,14,09,16.30
2012,10,02,14,10,16.30
2012,10,02,14,11,16.40
2012,10,02,14,12,16.40
2012,10,02,14,13,16.50
2012,10,02,14,14,16.60
2012,10,02,14,15,16.60
2012,10,02,14,16,16.70
2012,10,02,14,17,16.70
2012,10,02,14,18,16.70
2012,10,02,14,19,16.70
2012,10,02,14,20,16.60
2012,10,02,14,21,16.60
2012,10,02,14,22,16.60
2012,10,02,14,23,16.50
2012,10,02,14,24,16.50
2012,10,02,14,25,16.50
2012,10,02,14,26,16.50
2012,10,02,14,27,16.60
2012,10,02,14,28,16.70
2012,10,02,14,29,16.70
2012,10,02,14,30,16.80
2012,10,02,14,31,16.70
2012,10,02,14,32,16.70
2012,10,02,14,33,16.70
2012,10,02,14,34,16.70
2012,10,02,14,35,16.70
2012,10,02,14,36,16.80
2012,10,02,14,37,16.90
2012,10,02,14,38,16.90
2012,10,02,14,39,16.80
2012,10,02,14,40,16.70
2012,10,02,14,41,16.70
2012,10,02,14,42,16.60
2012,10,02,14,43,16.60
2012,10,02,14,44,16.70
2012,10,02,14,45,16.80
2012,10,02,14,46,16.90
2012,10,02,14,47,17.00
2012,10,02,14,48,17.00
2012,10,02,14,49,16.90
2012,10,02,14,50,16.80
2012,10,02,14,51,16.80
2012,10,02,14,52,16.70
2012,10,02,14,53,16.70
2012,10,02,14,54,16.70
2012,10,02,14,55,16.80
2012,10,02,14,56,16.90
2012,10,02,14,57,16.80
2012,10,02,14,58,16.80
2012,10,02,14,59,16.90
2012,10,02,15,00,16.90
2012,10,02,15,01,16.90
2012,10,02,15,02,16.90
2012,10,02,15,03,17.00
2012,10,02,15,04,17.00
2012,10,02,15,05,17.00
2012,10,02,15,06,17.00
2012,10,02,15,07,16.90
2012,10,02,15,08,16.90
2012,10,02,15,09,16.80
2012,10,02,15,10,16.80
2012,10,02,15,11,16.80
2012,10,02,15,12,16.60
2012,10,02,15,13,16.60
2012,10,02,15,14,16.50
2012,10,02,15,15,16.40
2012,10,02,15,16,16.40
2012,10,02,15,17,16.40
2012,10,02,15,18,16.30
2012,10,02,15,19,16.30
2012,10,02,15,20,16.30
2012,10,02,15,21,16.30
2012,10,02,15,22,16.20
2012,10,02,15,23,16.20
2012,10,02,15,24,16.20
2012,10,02,15,25,16.20
2012,10,02,15,26,16.20
2012,10,02,15,27,16.20
2012,10,02,15,28,16.30
2012,10,02,15,29,16.30
2012,10,02,15,30,16.30
2012,10,02,15,31,16.30
2012,10,02,15,32,16.30
2012,10,02,15,33,16.30
2012,10,02,15,34,16.30
2012,10,02,15,35,16.30
2012,10,02,15,36,16.30
2012,10,02,15,37,16.30
2012,10,02,15,38,16.30
2012,10,02,15,39,16.30
2012,10,02,15,40,16.30
2012,10,02,15,41,16.30
2012,10,02,15,42,16.30
2012,10,02,15,43,16.40
2012,10,02,15,44,16.40
2012,10,02,15,45,16.50
2012,10,02,15,46,16.60
2012,10,02,15,47,16.60
2012,10,02,15,48,16.60
2012,10,02,15,49,16.60
2012,10,02,15,50,16.70
2012,10,02,15,51,16.70
2012,10,02,15,52,16.70
2012,10,02,15,53,16.60
2012,10,02,15,54,16.60
2012,10,02,15,55,16.50
2012,10,02,15,56,16.40
2012,10,02,15,57,16.40
2012,10,02,15,58,16.40
2012,10,02,15,59,16.40
2012,10,02,16,00,16.40
2012,10,02,16,01,16.30
2012,10,02,16,02,16.40
2012,10,02,16,03,16.40
2012,10,02,16,04,16.40
2012,10,02,16,05,16.40
2012,10,02,16,06,16.40
2012,10,02,16,07,16.40
2012,10,02,16,08,16.30
2012,10,02,16,09,16.30
2012,10,02,16,10,16.40
2012,10,02,16,11,16.40
2012,10,02,16,12,16.40
2012,10,02,16,13,16.50
2012,10,02,16,14,16.60
2012,10,02,16,15,16.60
2012,10,02,16,16,16.70
2012,10,02,16,17,16.70
2012,10,02,16,18,16.80
2012,10,02,16,19,16.90
2012,10,02,16,20,16.90
2012,10,02,16,21,17.00
2012,10,02,16,22,17.00
2012,10,02,16,23,17.00
2012,10,02,16,24,17.00
2012,10,02,16,25,17.00
2012,10,02,16,26,17.10
2012,10,02,16,27,17.10
2012,10,02,16,28,17.00
2012,10,02,16,29,17.00
2012,10,02,16,30,16.90
2012,10,02,16,31,16.90
2012,10,02,16,32,16.90
2012,10,02,16,33,16.90
2012,10,02,16,34,16.90
2012,10,02,16,35,16.90
2012,10,02,16,36,16.90
2012,10,02,16,37,16.90
2012,10,02,16,38,16.90
2012,10,02,16,39,16.90
2012,10,02,16,40,16.80
2012,10,02,16,41,16.80
2012,10,02,16,42,16.80
2012,10,02,16,43,16.80
2012,10,02,16,44,16.80
2012,10,02,16,45,16.80
2012,10,02,16,46,16.80
2012,10,02,16,47,16.80
2012,10,02,16,48,16.70
2012,10,02,16,49,16.70
2012,10,02,16,50,16.70
2012,10,02,16,51,16.70
2012,10,02,16,52,16.70
2012,10,02,16,53,16.70
2012,10,02,16,54,16.80
2012,10,02,16,55,16.80
2012,10,02,16,56,16.90
2012,10,02,16,57,16.80
2012,10,02,16,58,16.80
2012,10,02,16,59,16.80
2012,10,02,17,00,16.60
2012,10,02,17,01,16.50
2012,10,02,17,02,16.40
2012,10,02,17,03,16.30
2012,10,02,17,04,16.20
2012,10,02,17,05,16.10
2012,10,02,17,06,16.10
2012,10,02,17,07,16.10
2012,10,02,17,08,16.10
2012,10,02,17,09,16.20
2012,10,02,17,10,16.10
2012,10,02,17,11,16.10
2012,10,02,17,12,16.10
2012,10,02,17,13,16.10
2012,10,02,17,14,16.10
2012,10,02,17,15,16.10
2012,10,02,17,16,16.10
2012,10,02,17,17,16.10
2012,10,02,17,18,16.10
2012,10,02,17,19,16.10
2012,10,02,17,20,16.10
2012,10,02,17,21,16.10
2012,10,02,17,22,16.10
2012,10,02,17,23,16.20